sat.trackr.live / text

‹ back to catalog

STARLINK-31570

NORAD 59324 · 2024-057E

PAYLOAD ACTIVE UNKNOWN

§ Identity

Operator
Country
US
Launch date
2024-03-25
Launch site
AFETR
Launch vehicle
Mass (kg)
RCS (m²)

Purposes: comms

External: N2YO · Heavens-Above · Gunter

§ Orbital elements

Epoch: 2026-05-25T04:27:42.708672Z

Period
94.27 min
Inclination
43.0030°
Eccentricity
0.0001310
Mean motion
15.27578236 rev/d
Perigee alt
482.2 km
Apogee alt
484.0 km
Semi-major
6,861.2 km
B*
4.6665e-5
RAAN
115.4528°
Arg perigee
269.7716°
Mean anomaly
90.2986°
Rev number
12,153

§ Raw data

STARLINK-315701 59324U 24057E   26145.18591098  .00001022  00000+0  46665-4 0  99952 59324  43.0030 115.4528 0001310 269.7716  90.2986 15.27578236121536

JSON: /api/v1/satellites/59324 · /tle

For live sub-satellite position, see the globe view (requires WebGL).

§ Visibility from observer

Set your observer location to see the next 7 days of passes ≥ 10°. The values pass through the URL so the page stays shareable.

No JS? Fill the form by hand. The geolocation button needs JavaScript.